DELTA 1 DEB

Satellite information

Favourite Embed

Satellite Type and Status

DEBRISIN ORBIT

Key statistics

Satellite DELTA 1 DEB at a glance.

Uptime

17525

Days in orbit

Revolutions

≈ 14.4

Per day

Orbit

LEO

Low Earth Orbit

Inclination

29.1

Latest

Satellite identification and parameters

Extended collection of information and parameters for DELTA 1 DEB.

Object identification

Identified? True

Debris? True

Object name: DELTA 1 DEB

International designator: 1977-065GB

Object number (NORAD): 19429

Object ID (CCSDS): 19429

Country: UNITED STATES OF AMERICA (US)

Current information (Y/N): Y

RCS size: SMALL

Orbital parameters

Period: 99.864 minutes

Inclination: 29.104 deg

SMA: 7130.161 km

Apoapsis: 1028.99 km

Periapsis: 475.062 km

RAAN: 11.2916 deg

Eccentricy: 0.038844

Argument of periapsis: 116.5193 deg

Mean anomaly: 247.5754 deg

Mean motion: 14.41961926 rev/day

Mean motion (dot): 0.00010893 rev/day2

B* drag term: 0.0012764 1/REarth

Two-line elements (TLE)

Creation date: July 6, 2025, 10:26 p.m.

Reference frame: TEME

Reference center: EARTH

Epoch: July 6, 2025, 7:52 p.m. UTC

TLE line 0: 0 DELTA 1 DEB

TLE line 1: 1 19429U 77065GB 25187.82795698 .00010893 00000-0 12764-2 0 9990

TLE line 2: 2 19429 29.1040 11.2916 0388440 116.5193 247.5754 14.41961926836684

Live tracking on map

Real-time ground track for satellite DELTA 1 DEB.

In-orbit conjunctions

A list of the most updated potential collisions computed for object DELTA 1 DEB.

Target Orbit TCA Probability of collision Miss distance Type
THOR ABLESTAR DEB LEO 2024-12-02 13:10:16 0.0004945686 54.0 (m) DEBRIS

Associated space launch

Japanese meteorological satellite built by Hughes Space and Communications Company

DELTA 1 DEB was lifted into orbit during the mission ‘Delta 2914 | Himawari’, on board a Delta 2914 space rocket.

The launch took place on July 14, 1977, 10:39 a.m. from Space Launch Complex 17B.

For more information about the launch, click the button.

Launch to space Delta 2914 | Himawari
Delta 2914 | Himawari

Agency: N/A

Status: Launch Successful

Launch date: July 14, 1977, 10:39 a.m. UTC

Rocket: Delta 2914

Launch pad: Space Launch Complex 17B

Location: Cape Canaveral SFS, FL, USA

...

Latest news about this satellite

There are no fresh news available about this satellite. Check back as we update our databases every day.


Newsletter sign-up

Weekly statistics, charts and insights to help you stay on top of the space industry.